Weather in New Orleans

United States     29°56′53″N   90°04′13″W
temp.,
°C
wind,
m/s
gust,
m/s
humid.,
%
clouds,
%
prec.,
mm/h
press.,
hPa
HPBL,
m
16 may, sun
sun1601:00+19se3878100 0.0 1020315
04:00+19se3778100 0.0 1020191
07:00+19se3672100 0.0 1022162
10:00+25ese4544100 0.0 10221266
13:00+28e564275 0.0 10201498
16:00+28ese67450 0.0 10181551
19:00+24ese68703 0.0 1018949
22:00+22se51083100 0.1 1019641
17 may, mon
mon1701:00+21se4108796 0.1 1018603
04:00+21se4108996 0.1 1017487
07:00+20se3794100 4.3 1017180
10:00+21se4888100 2.6 1019365
13:00+24se687974 4.3 1019685
16:00+25se667069 0.9 10171167
19:00+24se5771100 1.0 1017721
22:00+21se41084100 0.0 1017435
18 may, tue
tue1801:00+21se411925 0.0 1016470
04:00+21se310945 0.0 1016401
07:00+21se410955 2.1 1016337
10:00+26se67727 2.2 10171001
13:00+26ese687272 6.1 1017941
16:00+26ese7975100 1.7 1016958
19:00+25ese610789 1.7 1016839
22:00+23ese6118818 0.0 1017753
19 may, wed
wed1901:00+22se511870 0.0 1016642
04:00+21se410880 0.0 1016470
07:00+22se511865 0.0 1017828
10:00+27se796143 0.0 10181355
13:00+28ese896089 0.3 10181412
16:00+28ese8106113 2.3 10171396
19:00+25ese71075100 2.4 10181020
22:00+23ese51183100 0.0 1018683
20 may, thu
thu2001:00+22ese513826 0.0 1018793
04:00+22ese511846 0.0 1017758
07:00+24ese6128313 0.0 1017945
10:00+27ese8106555 0.3 10201284
13:00+27ese9116875 1.6 10201270
16:00+26ese9126954 0.6 10191276
19:00+24ese712750 0.8 10201018
22:00+23ese411780 0.0 1021625